| time (UTC) | temp F | wind direction | speed MPH | gust MPH | rain 1hr in | rain 24hr in | rain mn in | humidity % | barometer mb |
| 20260507115326 | 55 | 354 | 0.0 | 2.0 | 0.00 | 0.02 | 0.02 | 81 | 1013.8 |
| 20260507114822 | 55 | 135 | 2.0 | 2.0 | 0.00 | 0.02 | 0.02 | 81 | 1013.6 |
| 20260507114320 | 55 | 178 | 0.0 | 0.0 | 0.00 | 0.02 | 0.02 | 81 | 1013.5 |
| 20260507113817 | 55 | 76 | 0.0 | 0.0 | 0.00 | 0.02 | 0.02 | 81 | 1013.2 |
| 20260507113314 | 55 | 85 | 2.0 | 2.0 | 0.00 | 0.02 | 0.02 | 81 | 1013.3 |
| 20260507112811 | 54 | 85 | 0.0 | 2.0 | 0.00 | 0.02 | 0.02 | 81 | 1013.4 |
| 20260507112308 | 54 | 327 | 0.0 | 2.0 | 0.00 | 0.02 | 0.02 | 82 | 1013.4 |
| 20260507111806 | 54 | 48 | 1.0 | 2.0 | 0.00 | 0.02 | 0.02 | 82 | 1013.3 |
| 20260507111302 | 54 | 338 | 0.0 | 1.0 | 0.00 | 0.02 | 0.02 | 82 | 1013.3 |
| 20260507110758 | 54 | 97 | 0.0 | 2.0 | 0.00 | 0.02 | 0.02 | 82 | 1013.0 |
| 20260507110255 | 54 | 328 | 0.0 | 3.0 | 0.00 | 0.02 | 0.02 | 82 | 1013.1 |
| 20260507105752 | 54 | 75 | 2.0 | 2.0 | 0.00 | 0.02 | 0.02 | 83 | 1012.8 |
| 20260507105248 | 54 | 313 | 3.0 | 4.0 | 0.00 | 0.02 | 0.02 | 83 | 1012.7 |
| 20260507104745 | 54 | 89 | 0.0 | 2.0 | 0.00 | 0.02 | 0.02 | 83 | 1012.8 |
| 20260507104242 | 54 | 16 | 1.0 | 3.0 | 0.00 | 0.02 | 0.02 | 84 | 1012.8 |
| 20260507103738 | 54 | 98 | 2.0 | 2.0 | 0.00 | 0.02 | 0.02 | 84 | 1012.6 |
| 20260507103234 | 54 | 123 | 1.0 | 1.0 | 0.00 | 0.02 | 0.02 | 84 | 1012.7 |
| 20260507102730 | 54 | 225 | 0.0 | 3.0 | 0.00 | 0.02 | 0.02 | 84 | 1012.9 |
| 20260507102227 | 54 | 305 | 0.0 | 3.0 | 0.00 | 0.02 | 0.02 | 84 | 1012.8 |
| 20260507101723 | 54 | 228 | 0.0 | 3.0 | 0.00 | 0.02 | 0.02 | 84 | 1013.0 |
| 20260507101219 | 54 | 103 | 1.0 | 2.0 | 0.00 | 0.02 | 0.02 | 84 | 1012.7 |
| 20260507100716 | 54 | 241 | 0.0 | 2.0 | 0.00 | 0.02 | 0.02 | 85 | 1012.7 |
| 20260507100215 | 54 | 234 | 0.0 | 1.0 | 0.00 | 0.02 | 0.02 | 85 | 1012.9 |
| 20260507095712 | 54 | 342 | 0.0 | 2.0 | 0.00 | 0.02 | 0.02 | 85 | 1013.2 |
| 20260507095208 | 54 | 233 | 2.0 | 3.0 | 0.00 | 0.02 | 0.02 | 85 | 1012.8 |
| 20260507094705 | 55 | 240 | 0.0 | 2.0 | 0.00 | 0.02 | 0.02 | 85 | 1012.6 |
| 20260507094202 | 55 | 193 | 0.0 | 1.0 | 0.00 | 0.02 | 0.02 | 86 | 1012.3 |
| 20260507093659 | 55 | 80 | 4.0 | 4.0 | 0.00 | 0.02 | 0.02 | 86 | 1012.3 |
| 20260507093158 | 55 | 195 | 0.0 | 4.0 | 0.00 | 0.02 | 0.02 | 86 | 1012.3 |
| 20260507092654 | 55 | 147 | 1.0 | 2.0 | 0.00 | 0.02 | 0.02 | 87 | 1012.3 |
| 20260507092151 | 55 | 121 | 0.0 | 1.0 | 0.00 | 0.02 | 0.02 | 87 | 1012.7 |
| 20260507091647 | 55 | 290 | 0.0 | 3.0 | 0.00 | 0.02 | 0.02 | 87 | 1012.7 |
| 20260507091144 | 55 | 2 | 2.0 | 3.0 | 0.00 | 0.02 | 0.02 | 88 | 1012.7 |
| 20260507090639 | 55 | 123 | 0.0 | 2.0 | 0.00 | 0.02 | 0.02 | 88 | 1012.8 |
| 20260507090137 | 55 | 74 | 1.0 | 2.0 | 0.00 | 0.02 | 0.02 | 89 | 1012.8 |
| 20260507085634 | 55 | 76 | 1.0 | 2.0 | 0.00 | 0.02 | 0.02 | 89 | 1012.4 |
| 20260507085130 | 55 | 277 | 0.0 | 2.0 | 0.00 | 0.02 | 0.02 | 89 | 1012.3 |
| 20260507084627 | 55 | 149 | 3.0 | 3.0 | 0.00 | 0.02 | 0.02 | 89 | 1012.4 |
| 20260507084124 | 56 | 286 | 2.0 | 3.0 | 0.00 | 0.02 | 0.02 | 89 | 1012.3 |
| 20260507083621 | 56 | 99 | 3.0 | 4.0 | 0.00 | 0.02 | 0.02 | 90 | 1012.2 |
| 20260507083118 | 56 | 169 | 0.0 | 4.0 | 0.00 | 0.02 | 0.02 | 90 | 1012.3 |
| 20260507082613 | 56 | 256 | 0.0 | 0.0 | 0.00 | 0.02 | 0.02 | 90 | 1012.2 |
| 20260507082110 | 56 | 164 | 2.0 | 2.0 | 0.00 | 0.02 | 0.02 | 90 | 1012.0 |
| 20260507081607 | 56 | 245 | 0.0 | 0.0 | 0.00 | 0.02 | 0.02 | 90 | 1011.9 |
| 20260507081103 | 57 | 325 | 0.0 | 1.0 | 0.00 | 0.02 | 0.02 | 90 | 1011.8 |
| 20260507080559 | 57 | 320 | 0.0 | 2.0 | 0.00 | 0.02 | 0.02 | 91 | 1012.0 |
| 20260507080056 | 56 | 50 | 0.0 | 2.0 | 0.00 | 0.02 | 0.02 | 91 | 1012.1 |
| 20260507075551 | 56 | 208 | 0.0 | 3.0 | 0.00 | 0.02 | 0.02 | 91 | 1011.9 |
| 20260507075048 | 57 | 106 | 3.0 | 3.0 | 0.00 | 0.02 | 0.02 | 91 | 1012.0 |
| 20260507074544 | 57 | 138 | 1.0 | 2.0 | 0.00 | 0.02 | 0.02 | 91 | 1012.0 |
| 20260507074043 | 57 | 300 | 2.0 | 2.0 | 0.00 | 0.02 | 0.02 | 91 | 1012.2 |
| 20260507073539 | 57 | 110 | 0.0 | 3.0 | 0.00 | 0.02 | 0.02 | 91 | 1012.1 |
| 20260507073035 | 57 | 281 | 0.0 | 3.0 | 0.00 | 0.02 | 0.02 | 91 | 1011.5 |
| 20260507072533 | 57 | 65 | 0.0 | 1.0 | 0.00 | 0.02 | 0.02 | 92 | 1011.6 |
| 20260507072030 | 58 | 62 | 0.0 | 2.0 | 0.00 | 0.02 | 0.02 | 92 | 1011.3 |
| 20260507071527 | 58 | 281 | 2.0 | 4.0 | 0.00 | 0.02 | 0.02 | 92 | 1011.3 |
| 20260507071024 | 58 | 92 | 2.0 | 4.0 | 0.00 | 0.02 | 0.02 | 92 | 1011.3 |
| 20260507070521 | 59 | 47 | 1.0 | 1.0 | 0.00 | 0.02 | 0.02 | 92 | 1011.3 |
| 20260507070018 | 59 | 71 | 0.0 | 1.0 | 0.00 | 0.02 | 0.02 | 92 | 1011.1 |
| 20260507065514 | 59 | 309 | 2.0 | 3.0 | 0.00 | 0.02 | 0.02 | 92 | 1010.7 |
| 20260507065012 | 60 | 315 | 3.0 | 4.0 | 0.00 | 0.02 | 0.02 | 92 | 1011.0 |
| 20260507064509 | 60 | 128 | 4.0 | 5.0 | 0.00 | 0.02 | 0.02 | 92 | 1010.9 |
| 20260507064008 | 61 | 64 | 0.0 | 2.0 | 0.00 | 0.02 | 0.02 | 92 | 1011.2 |
| 20260507063504 | 62 | 118 | 2.0 | 2.0 | 0.00 | 0.02 | 0.02 | 92 | 1011.3 |
| 20260507063002 | 63 | 65 | 3.0 | 4.0 | 0.00 | 0.02 | 0.02 | 92 | 1011.4 |
| 20260507062458 | 63 | 53 | 1.0 | 1.0 | 0.00 | 0.02 | 0.02 | 92 | 1011.6 |
| 20260507061955 | 63 | 134 | 0.0 | 1.0 | 0.00 | 0.02 | 0.02 | 92 | 1011.6 |
| 20260507061453 | 64 | 58 | 0.0 | 2.0 | 0.00 | 0.02 | 0.02 | 92 | 1011.4 |
| 20260507060952 | 64 | 110 | 0.0 | 2.0 | 0.00 | 0.02 | 0.02 | 92 | 1011.4 |
| 20260507060448 | 64 | 314 | 0.0 | 1.0 | 0.00 | 0.02 | 0.02 | 92 | 1011.3 |
| 20260507055945 | 64 | 14 | 0.0 | 2.0 | 0.00 | 0.02 | 0.02 | 92 | 1011.2 |
| 20260507055440 | 64 | 336 | 0.0 | 0.0 | 0.00 | 0.02 | 0.02 | 92 | 1011.5 |
| 20260507054937 | 64 | 336 | 0.0 | 1.0 | 0.00 | 0.02 | 0.02 | 92 | 1011.2 |
| 20260507054433 | 64 | 317 | 0.0 | 1.0 | 0.00 | 0.02 | 0.02 | 92 | 1011.2 |
| 20260507053931 | 64 | 58 | 0.0 | 1.0 | 0.00 | 0.02 | 0.02 | 92 | 1011.1 |
| 20260507053428 | 64 | 320 | 0.0 | 2.0 | 0.00 | 0.02 | 0.02 | 91 | 1011.2 |
| 20260507052926 | 64 | 318 | 1.0 | 2.0 | 0.00 | 0.02 | 0.02 | 91 | 1010.8 |
| 20260507052423 | 64 | 319 | 0.0 | 1.0 | 0.00 | 0.02 | 0.02 | 91 | 1010.4 |
| 20260507051920 | 64 | 110 | 0.0 | 0.0 | 0.00 | 0.02 | 0.02 | 91 | 1009.9 |
| 20260507051418 | 64 | 110 | 0.0 | 0.0 | 0.00 | 0.02 | 0.02 | 91 | 1009.9 |
| 20260507050915 | 64 | 21 | 0.0 | 0.0 | 0.02 | 0.02 | 0.02 | 91 | 1010.0 |
| 20260507050411 | 64 | 21 | 0.0 | 0.0 | 0.02 | 0.02 | 0.02 | 90 | 1010.1 |
| 20260507045908 | 64 | 110 | 0.0 | 0.0 | 0.00 | 0.02 | 0.02 | 90 | 1010.1 |
| 20260507045405 | 64 | 106 | 0.0 | 1.0 | 0.02 | 0.02 | 0.02 | 90 | 1010.4 |
| 20260507044902 | 64 | 64 | 0.0 | 1.0 | 0.00 | 0.01 | 0.01 | 90 | 1010.5 |
| 20260507044359 | 64 | 325 | 0.0 | 2.0 | 0.02 | 0.01 | 0.01 | 90 | 1011.0 |
| 20260507043855 | 64 | 58 | 0.0 | 1.0 | 0.05 | 0.01 | 0.01 | 90 | 1011.2 |
| 20260507043351 | 64 | 58 | 0.0 | 0.0 | 0.02 | 0.01 | 0.01 | 89 | 1011.1 |
| 20260507042848 | 64 | 134 | 0.0 | 0.0 | 0.00 | 0.00 | 0.00 | 89 | 1011.4 |
| 20260507042344 | 64 | 325 | 0.0 | 0.0 | 0.02 | 0.00 | 0.00 | 89 | 1011.3 |
| 20260507041840 | 65 | 233 | 0.0 | 0.0 | 0.02 | 0.00 | 0.00 | 88 | 1011.2 |
| 20260507041337 | 65 | 58 | 0.0 | 0.0 | 0.00 | 0.00 | 0.00 | 88 | 1010.5 |
| 20260507040834 | 65 | 336 | 0.0 | 0.0 | 0.02 | 0.00 | 0.00 | 88 | 1010.8 |
| 20260507040331 | 65 | 336 | 0.0 | 1.0 | 0.02 | 0.00 | 0.00 | 87 | 1010.8 |
| 20260507035826 | 65 | 110 | 0.0 | 0.0 | 0.00 | 0.06 | 0.06 | 86 | 1010.5 |
| 20260507035322 | 66 | 81 | 0.0 | 1.0 | 0.02 | 0.06 | 0.06 | 86 | 1010.8 |
| 20260507034820 | 66 | 330 | 0.0 | 0.0 | 0.02 | 0.06 | 0.06 | 85 | 1011.0 |
| 20260507034316 | 66 | 330 | 0.0 | 0.0 | 0.00 | 0.06 | 0.06 | 85 | 1011.5 |
| 20260507033815 | 66 | 321 | 1.0 | 1.0 | 0.00 | 0.06 | 0.06 | 84 | 1011.5 |
| 20260507033312 | 66 | 336 | 0.0 | 1.0 | 0.00 | 0.06 | 0.06 | 83 | 1011.2 |
| 20260507032809 | 66 | 329 | 1.0 | 1.0 | 0.00 | 0.06 | 0.06 | 83 | 1011.4 |
| 20260507032306 | 66 | 52 | 0.0 | 2.0 | 0.00 | 0.06 | 0.06 | 83 | 1011.4 |
| 20260507031801 | 66 | 334 | 1.0 | 2.0 | 0.00 | 0.06 | 0.06 | 83 | 1011.1 |
| 20260507031258 | 66 | 314 | 2.0 | 2.0 | 0.00 | 0.06 | 0.06 | 83 | 1010.7 |
| 20260507030755 | 66 | 346 | 0.0 | 2.0 | 0.00 | 0.06 | 0.06 | 83 | 1010.8 |
| 20260507030253 | 66 | 68 | 0.0 | 0.0 | 0.00 | 0.06 | 0.06 | 83 | 1010.9 |
| 20260507025750 | 66 | 14 | 0.0 | 1.0 | 0.00 | 0.06 | 0.06 | 83 | 1010.7 |
| 20260507025247 | 66 | 81 | 0.0 | 3.0 | 0.00 | 0.06 | 0.06 | 83 | 1010.8 |
| 20260507024745 | 66 | 330 | 0.0 | 2.0 | 0.00 | 0.06 | 0.06 | 83 | 1010.9 |
| 20260507024242 | 66 | 58 | 0.0 | 0.0 | 0.00 | 0.06 | 0.06 | 82 | 1011.2 |
| 20260507023737 | 66 | 148 | 0.0 | 0.0 | 0.00 | 0.06 | 0.06 | 82 | 1011.1 |
| 20260507023234 | 67 | 326 | 0.0 | 2.0 | 0.00 | 0.06 | 0.06 | 81 | 1011.4 |
| 20260507022732 | 67 | 331 | 0.0 | 2.0 | 0.00 | 0.06 | 0.06 | 81 | 1011.2 |
| 20260507022227 | 67 | 282 | 0.0 | 3.0 | 0.00 | 0.06 | 0.06 | 81 | 1011.0 |
| 20260507021724 | 67 | 323 | 2.0 | 2.0 | 0.00 | 0.06 | 0.06 | 81 | 1010.9 |
| 20260507021219 | 67 | 307 | 2.0 | 2.0 | 0.00 | 0.06 | 0.06 | 81 | 1010.5 |
| 20260507020718 | 66 | 286 | 1.0 | 3.0 | 0.00 | 0.06 | 0.06 | 82 | 1010.2 |
| 20260507020214 | 66 | 267 | 0.0 | 2.0 | 0.00 | 0.06 | 0.06 | 82 | 1009.9 |
| 20260507015712 | 66 | 76 | 0.0 | 2.0 | 0.00 | 0.06 | 0.06 | 83 | 1009.9 |
| 20260507015209 | 66 | 206 | 1.0 | 2.0 | 0.00 | 0.06 | 0.06 | 83 | 1010.0 |
| 20260507014705 | 66 | 343 | 0.0 | 0.0 | 0.00 | 0.06 | 0.06 | 83 | 1010.2 |
| 20260507014201 | 66 | 221 | 0.0 | 1.0 | 0.00 | 0.06 | 0.06 | 83 | 1010.2 |
| 20260507013659 | 66 | 249 | 0.0 | 1.0 | 0.00 | 0.06 | 0.06 | 83 | 1010.5 |
| 20260507013156 | 66 | 331 | 0.0 | 1.0 | 0.00 | 0.06 | 0.06 | 83 | 1010.7 |
| 20260507012654 | 66 | 58 | 0.0 | 1.0 | 0.00 | 0.06 | 0.06 | 82 | 1010.2 |
| 20260507012148 | 66 | 235 | 0.0 | 1.0 | 0.00 | 0.06 | 0.06 | 82 | 1010.2 |
| 20260507011647 | 66 | 326 | 2.0 | 2.0 | 0.00 | 0.06 | 0.06 | 82 | 1010.4 |
| 20260507011143 | 66 | 305 | 1.0 | 1.0 | 0.00 | 0.06 | 0.06 | 82 | 1010.8 |
| 20260507010637 | 66 | 213 | 1.0 | 1.0 | 0.00 | 0.06 | 0.06 | 81 | 1011.0 |
| 20260507010134 | 66 | 336 | 0.0 | 1.0 | 0.00 | 0.06 | 0.06 | 81 | 1011.0 |
| 20260507005631 | 66 | 238 | 0.0 | 1.0 | 0.00 | 0.06 | 0.06 | 80 | 1011.0 |
| 20260507005127 | 67 | 239 | 0.0 | 1.0 | 0.00 | 0.06 | 0.06 | 80 | 1010.7 |
| 20260507004624 | 67 | 320 | 0.0 | 2.0 | 0.00 | 0.06 | 0.06 | 80 | 1010.8 |
| 20260507004122 | 67 | 321 | 2.0 | 3.0 | 0.00 | 0.06 | 0.06 | 80 | 1010.9 |
| 20260507003618 | 67 | 27 | 0.0 | 2.0 | 0.00 | 0.06 | 0.06 | 80 | 1010.4 |
| 20260507003113 | 67 | 343 | 0.0 | 0.0 | 0.00 | 0.06 | 0.06 | 79 | 1010.4 |
| 20260507002610 | 67 | 284 | 1.0 | 4.0 | 0.00 | 0.06 | 0.06 | 79 | 1010.5 |
| 20260507002105 | 67 | 207 | 0.0 | 1.0 | 0.00 | 0.06 | 0.06 | 79 | 1010.5 |
| 20260507001602 | 67 | 253 | 0.0 | 2.0 | 0.00 | 0.06 | 0.06 | 78 | 1010.4 |
| 20260507001100 | 68 | 319 | 3.0 | 4.0 | 0.00 | 0.06 | 0.06 | 78 | 1010.7 |
| 20260507000556 | 68 | 308 | 0.0 | 1.0 | 0.00 | 0.06 | 0.06 | 78 | 1010.7 |
| 20260507000051 | 68 | 275 | 0.0 | 2.0 | 0.00 | 0.06 | 0.06 | 77 | 1010.7 |
| 20260506235549 | 68 | 226 | 1.0 | 2.0 | 0.00 | 0.06 | 0.06 | 78 | 1010.3 |
| 20260506235044 | 68 | 265 | 2.0 | 3.0 | 0.00 | 0.06 | 0.06 | 77 | 1010.0 |
| 20260506234542 | 68 | 180 | 2.0 | 2.0 | 0.00 | 0.06 | 0.06 | 77 | 1010.1 |
| 20260506234039 | 68 | 294 | 3.0 | 3.0 | 0.00 | 0.06 | 0.06 | 77 | 1010.2 |
| 20260506233536 | 68 | 343 | 0.0 | 1.0 | 0.00 | 0.06 | 0.06 | 77 | 1010.4 |
| 20260506233032 | 69 | 199 | 0.0 | 2.0 | 0.00 | 0.06 | 0.06 | 76 | 1010.3 |
| 20260506232529 | 69 | 70 | 0.0 | 2.0 | 0.00 | 0.06 | 0.06 | 76 | 1010.7 |
| 20260506232019 | 69 | 350 | 1.0 | 2.0 | 0.00 | 0.06 | 0.06 | 76 | 1010.7 |
| 20260506231517 | 69 | 196 | 0.0 | 2.0 | 0.00 | 0.06 | 0.06 | 76 | 1010.7 |
| 20260506231014 | 69 | 331 | 1.0 | 2.0 | 0.00 | 0.06 | 0.06 | 75 | 1010.7 |
| 20260506230509 | 69 | 120 | 0.0 | 2.0 | 0.00 | 0.06 | 0.06 | 75 | 1010.3 |
| 20260506230008 | 69 | 328 | 2.0 | 2.0 | 0.00 | 0.06 | 0.06 | 74 | 1009.9 |
| 20260506225504 | 69 | 230 | 1.0 | 4.0 | 0.00 | 0.06 | 0.06 | 75 | 1009.8 |
| 20260506225000 | 69 | 145 | 0.0 | 0.0 | 0.00 | 0.06 | 0.06 | 75 | 1010.1 |
| 20260506224457 | 70 | 311 | 2.0 | 2.0 | 0.00 | 0.06 | 0.06 | 74 | 1009.7 |
| 20260506223954 | 70 | 277 | 2.0 | 4.0 | 0.00 | 0.06 | 0.06 | 74 | 1009.7 |
| 20260506223450 | 70 | 151 | 0.0 | 1.0 | 0.00 | 0.06 | 0.06 | 74 | 1010.0 |
| 20260506222947 | 70 | 317 | 1.0 | 2.0 | 0.00 | 0.06 | 0.06 | 74 | 1010.1 |
| 20260506222444 | 70 | 277 | 0.0 | 2.0 | 0.00 | 0.06 | 0.06 | 74 | 1009.7 |
| 20260506221940 | 70 | 328 | 0.0 | 2.0 | 0.00 | 0.06 | 0.06 | 74 | 1009.9 |
| 20260506221437 | 70 | 228 | 1.0 | 3.0 | 0.00 | 0.06 | 0.06 | 74 | 1009.9 |
| 20260506220935 | 70 | 270 | 1.0 | 5.0 | 0.00 | 0.06 | 0.06 | 73 | 1010.0 |
| 20260506220431 | 70 | 305 | 3.0 | 4.0 | 0.00 | 0.06 | 0.06 | 74 | 1010.2 |
| 20260506215927 | 70 | 251 | 0.0 | 3.0 | 0.00 | 0.06 | 0.06 | 75 | 1010.1 |
| 20260506215423 | 70 | 220 | 2.0 | 4.0 | 0.00 | 0.06 | 0.06 | 73 | 1010.1 |
| 20260506214919 | 70 | 330 | 0.0 | 3.0 | 0.00 | 0.06 | 0.06 | 74 | 1010.1 |
| 20260506214416 | 70 | 137 | 0.0 | 4.0 | 0.00 | 0.06 | 0.06 | 73 | 1010.1 |
| 20260506213914 | 70 | 304 | 1.0 | 3.0 | 0.00 | 0.06 | 0.06 | 73 | 1010.1 |
| 20260506213412 | 71 | 205 | 1.0 | 5.0 | 0.00 | 0.06 | 0.06 | 73 | 1009.8 |
| 20260506212909 | 70 | 278 | 1.0 | 7.0 | 0.00 | 0.06 | 0.06 | 72 | 1009.4 |
| 20260506212405 | 71 | 151 | 1.0 | 6.0 | 0.00 | 0.06 | 0.06 | 72 | 1009.7 |
| 20260506211859 | 71 | 220 | 3.0 | 6.0 | 0.00 | 0.06 | 0.06 | 72 | 1009.8 |
| 20260506211356 | 71 | 336 | 3.0 | 4.0 | 0.00 | 0.06 | 0.06 | 72 | 1009.7 |
| 20260506210853 | 71 | 305 | 3.0 | 4.0 | 0.00 | 0.06 | 0.06 | 74 | 1009.8 |
| 20260506210350 | 71 | 311 | 3.0 | 5.0 | 0.00 | 0.06 | 0.06 | 71 | 1009.6 |
| 20260506205847 | 71 | 109 | 0.0 | 5.0 | 0.00 | 0.06 | 0.06 | 72 | 1009.7 |
| 20260506205343 | 71 | 316 | 0.0 | 3.0 | 0.00 | 0.06 | 0.06 | 71 | 1009.7 |
| 20260506204839 | 71 | 212 | 1.0 | 2.0 | 0.00 | 0.06 | 0.06 | 72 | 1009.6 |
| 20260506204337 | 71 | 318 | 0.0 | 5.0 | 0.00 | 0.06 | 0.06 | 70 | 1009.7 |
| 20260506203835 | 71 | 208 | 2.0 | 4.0 | 0.00 | 0.06 | 0.06 | 70 | 1009.8 |
| 20260506203332 | 72 | 315 | 1.0 | 2.0 | 0.00 | 0.06 | 0.06 | 70 | 1009.7 |
| 20260506202828 | 71 | 302 | 1.0 | 2.0 | 0.00 | 0.06 | 0.06 | 71 | 1009.7 |
| 20260506202326 | 71 | 164 | 2.0 | 2.0 | 0.00 | 0.06 | 0.06 | 71 | 1009.8 |
| 20260506201822 | 71 | 278 | 0.0 | 4.0 | 0.00 | 0.06 | 0.06 | 71 | 1009.7 |
| 20260506201320 | 71 | 299 | 4.0 | 4.0 | 0.00 | 0.06 | 0.06 | 71 | 1009.7 |
| 20260506200816 | 71 | 251 | 2.0 | 4.0 | 0.00 | 0.06 | 0.06 | 71 | 1009.8 |
| 20260506200312 | 71 | 281 | 0.0 | 3.0 | 0.00 | 0.06 | 0.06 | 71 | 1010.0 |
| 20260506195808 | 71 | 311 | 2.0 | 4.0 | 0.00 | 0.06 | 0.06 | 72 | 1010.1 |
| 20260506195306 | 70 | 295 | 2.0 | 6.0 | 0.00 | 0.06 | 0.06 | 71 | 1010.1 |
| 20260506194803 | 71 | 253 | 2.0 | 3.0 | 0.00 | 0.06 | 0.06 | 71 | 1009.7 |
| 20260506194259 | 71 | 329 | 0.0 | 3.0 | 0.00 | 0.06 | 0.06 | 72 | 1009.9 |
| 20260506193757 | 71 | 256 | 0.0 | 3.0 | 0.00 | 0.06 | 0.06 | 72 | 1010.0 |
| 20260506193253 | 70 | 257 | 2.0 | 3.0 | 0.00 | 0.06 | 0.06 | 72 | 1010.2 |
| 20260506192749 | 70 | 216 | 0.0 | 3.0 | 0.00 | 0.06 | 0.06 | 73 | 1010.2 |
| 20260506192247 | 68 | 347 | 2.0 | 4.0 | 0.00 | 0.06 | 0.06 | 77 | 1010.3 |
| 20260506191743 | 67 | 14 | 1.0 | 3.0 | 0.00 | 0.06 | 0.06 | 77 | 1010.1 |
| 20260506191240 | 67 | 214 | 2.0 | 2.0 | 0.00 | 0.06 | 0.06 | 79 | 1010.2 |
| 20260506190737 | 66 | 266 | 2.0 | 2.0 | 0.00 | 0.06 | 0.06 | 79 | 1010.2 |
| 20260506190233 | 66 | 238 | 0.0 | 5.0 | 0.00 | 0.06 | 0.06 | 79 | 1010.4 |
| 20260506185731 | 66 | 303 | 1.0 | 5.0 | 0.00 | 0.06 | 0.06 | 79 | 1010.4 |
| 20260506185227 | 66 | 59 | 2.0 | 3.0 | 0.00 | 0.06 | 0.06 | 79 | 1010.2 |
| 20260506184725 | 66 | 325 | 0.0 | 6.0 | 0.00 | 0.06 | 0.06 | 78 | 1010.5 |
| 20260506184222 | 66 | 213 | 1.0 | 2.0 | 0.00 | 0.06 | 0.06 | 78 | 1010.9 |
| 20260506183718 | 66 | 148 | 0.0 | 3.0 | 0.00 | 0.06 | 0.06 | 79 | 1010.5 |
| 20260506183214 | 67 | 173 | 2.0 | 3.0 | 0.00 | 0.06 | 0.06 | 80 | 1010.2 |
| 20260506182712 | 66 | 331 | 0.0 | 3.0 | 0.00 | 0.06 | 0.06 | 79 | 1010.7 |
| 20260506182209 | 67 | 100 | 2.0 | 3.0 | 0.00 | 0.06 | 0.06 | 80 | 1011.0 |
| 20260506181706 | 67 | 259 | 1.0 | 3.0 | 0.00 | 0.06 | 0.06 | 80 | 1011.0 |
| 20260506181204 | 66 | 249 | 0.0 | 3.0 | 0.00 | 0.06 | 0.06 | 80 | 1010.8 |
| 20260506180700 | 66 | 21 | 0.0 | 6.0 | 0.00 | 0.06 | 0.06 | 80 | 1011.0 |
| 20260506180156 | 66 | 330 | 2.0 | 6.0 | 0.00 | 0.06 | 0.06 | 80 | 1011.1 |
| 20260506175653 | 66 | 8 | 0.0 | 2.0 | 0.00 | 0.06 | 0.06 | 81 | 1010.8 |
| 20260506175150 | 66 | 125 | 0.0 | 2.0 | 0.00 | 0.06 | 0.06 | 80 | 1011.2 |
| 20260506174648 | 66 | 238 | 0.0 | 2.0 | 0.00 | 0.06 | 0.06 | 80 | 1011.1 |
| 20260506174145 | 66 | 209 | 2.0 | 4.0 | 0.00 | 0.06 | 0.06 | 81 | 1011.2 |
| 20260506173643 | 66 | 237 | 2.0 | 2.0 | 0.00 | 0.06 | 0.06 | 81 | 1010.9 |
| 20260506173139 | 65 | 290 | 4.0 | 4.0 | 0.00 | 0.06 | 0.06 | 79 | 1011.1 |
| 20260506172636 | 66 | 196 | 2.0 | 3.0 | 0.00 | 0.06 | 0.06 | 80 | 1011.0 |
| 20260506172133 | 66 | 207 | 0.0 | 3.0 | 0.00 | 0.06 | 0.06 | 80 | 1010.4 |
| 20260506171630 | 66 | 277 | 2.0 | 3.0 | 0.00 | 0.06 | 0.06 | 79 | 1011.0 |
| 20260506171128 | 66 | 261 | 0.0 | 5.0 | 0.00 | 0.06 | 0.06 | 79 | 1011.1 |
| 20260506170625 | 66 | 296 | 5.0 | 5.0 | 0.00 | 0.06 | 0.06 | 79 | 1011.2 |
| 20260506170122 | 66 | 110 | 0.0 | 2.0 | 0.00 | 0.06 | 0.06 | 79 | 1010.9 |
| 20260506165621 | 66 | 92 | 0.0 | 3.0 | 0.00 | 0.06 | 0.06 | 79 | 1011.3 |
| 20260506165116 | 67 | 89 | 4.0 | 5.0 | 0.00 | 0.06 | 0.06 | 80 | 1011.5 |
| 20260506164614 | 66 | 17 | 2.0 | 4.0 | 0.00 | 0.06 | 0.06 | 79 | 1011.3 |
| 20260506164111 | 66 | 91 | 2.0 | 2.0 | 0.00 | 0.06 | 0.06 | 81 | 1011.2 |
| 20260506163607 | 66 | 139 | 0.0 | 2.0 | 0.00 | 0.06 | 0.06 | 82 | 1011.4 |
| 20260506163103 | 65 | 63 | 0.0 | 2.0 | 0.00 | 0.06 | 0.06 | 82 | 1011.0 |
| 20260506162559 | 65 | 293 | 2.0 | 3.0 | 0.00 | 0.06 | 0.06 | 82 | 1011.5 |
| 20260506162057 | 65 | 15 | 0.0 | 2.0 | 0.00 | 0.06 | 0.06 | 83 | 1010.9 |
| 20260506161554 | 64 | 241 | 0.0 | 4.0 | 0.00 | 0.06 | 0.06 | 82 | 1011.5 |
| 20260506161046 | 64 | 213 | 1.0 | 4.0 | 0.00 | 0.06 | 0.06 | 83 | 1011.5 |
| 20260506160543 | 64 | 345 | 3.0 | 3.0 | 0.00 | 0.06 | 0.06 | 84 | 1011.7 |
| 20260506160040 | 64 | 225 | 2.0 | 5.0 | 0.00 | 0.06 | 0.06 | 85 | 1011.7 |
| 20260506155538 | 64 | 278 | 0.0 | 2.0 | 0.00 | 0.06 | 0.06 | 86 | 1011.6 |
| 20260506153714 | 62 | 333 | 3.0 | 3.0 | 0.00 | 0.06 | 0.06 | 88 | 1011.7 |
| 20260506153212 | 61 | 290 | 1.0 | 4.0 | 0.00 | 0.06 | 0.06 | 89 | 1011.7 |
| 20260506152709 | 62 | 330 | 2.0 | 2.0 | 0.00 | 0.06 | 0.06 | 89 | 1011.8 |
| 20260506152206 | 61 | 337 | 0.0 | 6.0 | 0.00 | 0.06 | 0.06 | 90 | 1011.4 |
| 20260506151706 | 61 | 20 | 2.0 | 4.0 | 0.00 | 0.06 | 0.06 | 90 | 1011.4 |
| 20260506151201 | 61 | 197 | 1.0 | 2.0 | 0.00 | 0.06 | 0.06 | 90 | 1011.6 |
| 20260506150658 | 61 | 138 | 0.0 | 2.0 | 0.00 | 0.06 | 0.06 | 90 | 1011.6 |
| 20260506150155 | 61 | 218 | 2.0 | 2.0 | 0.00 | 0.06 | 0.06 | 90 | 1011.7 |
| 20260506145652 | 61 | 144 | 1.0 | 2.0 | 0.00 | 0.06 | 0.06 | 90 | 1011.6 |
| 20260506145149 | 61 | 343 | 0.0 | 3.0 | 0.00 | 0.06 | 0.06 | 90 | 1011.7 |
| 20260506144647 | 61 | 148 | 0.0 | 2.0 | 0.00 | 0.06 | 0.06 | 90 | 1011.9 |
| 20260506144143 | 60 | 354 | 0.0 | 2.0 | 0.00 | 0.06 | 0.06 | 90 | 1011.9 |
| 20260506143641 | 60 | 128 | 0.0 | 2.0 | 0.00 | 0.06 | 0.06 | 90 | 1011.8 |
| 20260506143138 | 60 | 245 | 0.0 | 2.0 | 0.00 | 0.06 | 0.06 | 90 | 1011.7 |
| 20260506142637 | 60 | 287 | 0.0 | 2.0 | 0.00 | 0.06 | 0.06 | 90 | 1011.7 |
| 20260506142134 | 60 | 232 | 0.0 | 2.0 | 0.00 | 0.06 | 0.06 | 90 | 1011.9 |
| 20260506141632 | 60 | 206 | 0.0 | 2.0 | 0.00 | 0.06 | 0.06 | 89 | 1012.3 |
| 20260506141130 | 60 | 93 | 0.0 | 2.0 | 0.02 | 0.06 | 0.06 | 89 | 1012.3 |
| 20260506140627 | 60 | 5 | 0.0 | 2.0 | 0.05 | 0.06 | 0.06 | 89 | 1012.1 |
| 20260506140124 | 60 | 91 | 0.0 | 2.0 | 0.09 | 0.06 | 0.06 | 89 | 1012.3 |
| 20260506135621 | 60 | 145 | 0.0 | 1.0 | 0.02 | 0.04 | 0.04 | 89 | 1012.2 |
| 20260506135117 | 60 | 82 | 0.0 | 2.0 | 0.00 | 0.04 | 0.04 | 88 | 1012.2 |
| 20260506134614 | 60 | 58 | 0.0 | 2.0 | 0.00 | 0.04 | 0.04 | 88 | 1012.5 |
| 20260506134109 | 60 | 315 | 5.0 | 5.0 | 0.00 | 0.04 | 0.04 | 88 | 1012.6 |
| 20260506133607 | 60 | 287 | 2.0 | 2.0 | 0.02 | 0.04 | 0.04 | 88 | 1012.4 |
| 20260506133104 | 60 | 156 | 0.0 | 2.0 | 0.05 | 0.04 | 0.04 | 88 | 1012.3 |
| 20260506132601 | 60 | 157 | 1.0 | 2.0 | 0.05 | 0.04 | 0.04 | 87 | 1012.4 |
| 20260506132058 | 60 | 177 | 0.0 | 2.0 | 0.05 | 0.03 | 0.03 | 87 | 1012.4 |
| 20260506131556 | 60 | 140 | 1.0 | 2.0 | 0.02 | 0.03 | 0.03 | 87 | 1012.1 |
| 20260506131052 | 60 | 264 | 0.0 | 1.0 | 0.02 | 0.02 | 0.02 | 86 | 1012.1 |
| 20260506130549 | 60 | 314 | 0.0 | 2.0 | 0.02 | 0.02 | 0.02 | 86 | 1012.2 |
| 20260506130046 | 60 | 152 | 1.0 | 1.0 | 0.02 | 0.02 | 0.02 | 85 | 1012.2 |
| 20260506125545 | 60 | 308 | 0.0 | 2.0 | 0.00 | 0.02 | 0.02 | 85 | 1012.0 |
| 20260506125042 | 60 | 179 | 2.0 | 2.0 | 0.00 | 0.02 | 0.02 | 84 | 1012.0 |
| 20260506124539 | 61 | 68 | 2.0 | 2.0 | 0.02 | 0.02 | 0.02 | 84 | 1012.2 |
| 20260506124037 | 61 | 126 | 0.0 | 2.0 | 0.05 | 0.02 | 0.02 | 83 | 1012.0 |
| 20260506123535 | 61 | 304 | 2.0 | 2.0 | 0.02 | 0.01 | 0.01 | 82 | 1012.1 |
| 20260506123033 | 62 | 80 | 0.0 | 2.0 | 0.02 | 0.01 | 0.01 | 81 | 1011.9 |
| 20260506122529 | 62 | 53 | 0.0 | 1.0 | 0.05 | 0.01 | 0.01 | 79 | 1012.1 |
| 20260506122028 | 62 | 266 | 0.0 | 2.0 | 0.02 | 0.00 | 0.00 | 77 | 1012.1 |
| 20260506121525 | 62 | 11 | 0.0 | 2.0 | 0.00 | 0.00 | 0.00 | 77 | 1012.5 |
| 20260506121021 | 62 | 267 | 0.0 | 2.0 | 0.00 | 0.00 | 0.00 | 79 | 1012.2 |
| 20260506120519 | 62 | 67 | 1.0 | 2.0 | 0.00 | 0.00 | 0.00 | 78 | 1012.2 |
| 20260506120016 | 62 | 190 | 0.0 | 2.0 | 0.00 | 0.00 | 0.00 | 78 | 1012.0 |